Location: Forst
(46.9333°N, 15.4333°E)
Time: 15:01:50
(UTC+00:00)

COSMOS 2251 DEB - Visible Passes

Search period start: 24 June 2021 00:00
Search period end: 04 July 2021 00:00
Orbit: 570 x 792 km, 74.0° (Epoch: 23 June)

Date Brightness Start Highest point End Pass type
(mag) Time Alt. Az. Time Alt. Az. Time Alt. Az.
24 Jun ? 00:15:06 10° NW 00:18:17 19° W 00:18:56 18° WSW visible
24 Jun ? 21:31:36 10° N 21:35:03 21° NE 21:38:19 11° ESE visible
24 Jun ? 23:11:03 10° NNW 23:15:31 54° WSW 23:16:43 42° SSW visible
25 Jun ? 22:07:58 10° NNW 22:12:26 51° ENE 22:14:33 29° SE visible
25 Jun ? 23:48:55 10° NW 23:52:17 20° W 23:52:58 19° WSW visible
26 Jun ? 21:05:36 10° N 21:09:00 20° NE 21:12:25 10° E visible
26 Jun ? 22:44:58 10° NNW 22:49:30 58° WSW 22:50:50 42° SSW visible
27 Jun ? 21:41:55 10° NNW 21:46:24 49° ENE 21:48:43 27° SE visible
27 Jun ? 23:22:45 10° NW 23:26:18 22° W 23:27:08 21° WSW visible
28 Jun ? 20:39:35 10° N 20:42:56 19° NE 20:46:25 10° E visible
28 Jun ? 22:18:53 10° NNW 22:23:29 62° WSW 22:25:03 40° S visible
29 Jun ? 21:15:52 10° N 21:20:21 46° ENE 21:22:59 24° SE visible
29 Jun ? 22:56:35 10° NW 23:00:17 23° W 23:01:25 21° WSW visible
30 Jun ? 20:13:34 10° N 20:16:51 19° NE 20:20:17 10° E visible
30 Jun ? 21:52:47 10° NNW 21:57:27 67° WSW 21:59:22 36° S visible
01 Jul ? 20:49:48 10° N 20:54:17 44° ENE 20:57:22 20° SE visible
01 Jul ? 22:30:25 10° NW 22:34:16 25° W 22:35:47 21° SW visible
02 Jul ? 19:47:32 10° N 19:50:46 18° NE 19:54:08 10° E visible
02 Jul ? 21:26:41 10° NNW 21:31:24 71° WSW 21:33:48 30° S visible
03 Jul ? 20:23:43 10° N 20:28:13 42° ENE 20:31:51 16° SE visible
03 Jul ? 22:04:14 10° NW 22:08:14 27° W 22:10:17 20° SW visible
